User: anonymous   Login
Location: Unspecified
(0.0000°N, 0.0000°E)
Time: 17:10:10
(UTC+00:00)
Language:

USA 186 - Orbit

View from above orbital plane
View from above orbital plane
View from above satellite
View from above satellite

Ground track
Ground track

The orbit data is extracted from the following two-line orbital elements,

1 28888U 05042A   16269.78176450 0.00031000  00000-0  13782-3 0    08
2 28888  96.8693 306.3677 0148591  30.9129 329.0869 15.69485234    05
Epoch (UTC): 25 September 2016 18:45:44
Eccentricity: 0.0148591
inclination: 96.8693°
perigee height: 260 km
apogee height: 460 km
right ascension of ascending node: 306.3677°
argument of perigee: 30.9129°
revolutions per day: 15.69485234
mean anomaly at epoch: 329.0869°
orbit number at epoch: 0

The dashed part of the orbit path shows where the satellite is in the earth's shadow,  

DLR